Regional Weather Roundup
Issued by NWS

Home | Current Version | Previous Version | Graphics & Text | Print | Product List | Glossary On
Versions: 1 2 3 4 5 6 7 8 9 10 11 12 13 14 15 16 17 18 19 20 21 22 23 24 25 26 27 28 29 30 31 32 33 34 35 36 37 38 39 40 41 42 43 44 45 46 47 48 49 50
000
ASUS43 KIND 291209
RWRIN

WEATHER ROUNDUP FOR INDIANA
NATIONAL WEATHER SERVICE INDIANAPOLIS IN
800 AM EDT FRI MAY 29 2015

NOTE: "FAIR" INDICATES FEW OR NO CLOUDS BELOW 12,000 FEET WITH NO
SIGNIFICANT WEATHER AND/OR OBSTRUCTIONS TO VISIBILITY.

* - STATION DOES NOT REPORT WEATHER SUCH AS PRECIPITATION OR FOG.

+ - STATION NOT QUALITY CONTROLLED BY THE NATIONAL WEATHER SERVICE.
    USE DATA WITH CAUTION...ESPECIALLY DEWPOINT AND RELATIVE
    HUMIDITY OBSERVATIONS.

INZ001>003-010>013-019-020-291300-
NORTHWEST INDIANA

CITY           SKY/WX    TMP DP  RH WIND       PRES   REMARKS
GARY /AIRPORT/ PTSUNNY   70  66  88 SE7       30.04F
KNOX *+        CLOUDY    68  63  83 S9        30.07S
LA PORTE +     CLOUDY    69  64  85 S6        30.08S
6HR MIN TEMP:  64; 6HR MAX TEMP:  70;

MICHIGAN CITY+ CLOUDY    68  61  77 SE7       30.06S
MONTICELLO +   CLOUDY    67  65  93 SE3       30.07S
6HR MIN TEMP:  65; 6HR MAX TEMP:  71;

RENSSELAER +   PTSUNNY   68  64  88 S8        30.08R
VALPARAISO     CLOUDY    68  63  84 S8        30.07S
6HR MIN TEMP:  62; 6HR MAX TEMP:  69;


$$

LMZ046-743>745-291300-
SOUTHERN LAKE MICHIGAN

STATION/POSITION TIME  TEMP    WIND        PRES    WAVE
                       AIR SEA DIR/SP/G            HT
                 (UTC) (F)     (DEG/KT/KT) (MB)    (FT)
BURNS HARBOR     1200   70     160/ 10/ 14 1017.9R
MICHIGAN CITY    1200   69     130/ 11/ 15   N/A
5NW MICH CITY    1200   64 55  170/ 10/ 12   N/A     1

$$

INZ004-005-014>016-021>024-291300-
NORTH CENTRAL INDIANA

CITY           SKY/WX    TMP DP  RH WIND       PRES   REMARKS
ELKHART        PTSUNNY   66  63  88 SE6       30.10R
GOSHEN         PTSUNNY   66  61  84 SE8       30.09F HAZE
6HR MIN TEMP:  60; 6HR MAX TEMP:  67;

LOGANSPORT +   PTSUNNY   66  61  82 SE7       30.10R
PERU/GRISSOM   PTSUNNY   67  64  90 SE8       30.08F
6HR MIN TEMP:  64; 6HR MAX TEMP:  68;

ROCHESTER +    PTSUNNY   68  64  88 SE5       30.10R FOG
SOUTH BEND     PTSUNNY   69  62  78 SE8       30.08S
6HR MIN TEMP:  64; 6HR MAX TEMP:  70;

WARSAW +       PTSUNNY   64  63  94 CALM      30.10S FOG

$$

INZ006>009-017-018-025>027-291300-
NORTHEAST INDIANA

CITY           SKY/WX    TMP DP  RH WIND       PRES   REMARKS
ANGOLA *+      SUNNY     64  55  72 SE5       30.12S
AUBURN +       PTSUNNY   64  61  88 CALM      30.13S HAZE
FORT WAYNE     PTSUNNY   66  63  90 SE8       30.13S
6HR MIN TEMP:  60; 6HR MAX TEMP:  66;

HUNTINGTON +   PTSUNNY   66  63  91 SE6       30.12S FOG
6HR MIN TEMP:  59; 6HR MAX TEMP:  66;


$$

INZ028-029-035-036-043>045-051>053-291300-
WEST CENTRAL INDIANA

CITY           SKY/WX    TMP DP  RH WIND       PRES   REMARKS
CRAWFORDSVL +  PTSUNNY   66  59  80 SE9       30.10R
6HR MIN TEMP:  63; 6HR MAX TEMP:  68;

GREENCASTLE +  MOSUNNY   64  61  88 SE3       30.11R
LAFAYETTE      CLOUDY    68  63  84 CALM      30.08R
6HR MIN TEMP:  63; 6HR MAX TEMP:  70;

TERRE HAUTE    MOSUNNY   69  64  84 SE6       30.09R
6HR MIN TEMP:  63; 6HR MAX TEMP:  71;


$$

INZ030>032-037>040-046>048-054>057-064-065-291300-
CENTRAL INDIANA

CITY           SKY/WX    TMP DP  RH WIND       PRES   REMARKS
CP ATTERBURY + SUNNY     64  63  94 CALM      30.12S FOG
COLUMBUS       SUNNY     66  63  88 S5        30.12S
FISHERS *+     MOSUNNY   66  64  94 SE7       30.12R
FRANKFORT +    PTSUNNY   68  68 100 SE6       30.11S
GREENWOOD *+   MOSUNNY   68  63  83 SE8       30.12R
INDIANAPOLIS   CLOUDY    67  63  87 SE8       30.09S
6HR MIN TEMP:  65; 6HR MAX TEMP:  69;

-EAGLE CREEK   MOSUNNY   68  64  87 SE6       30.11R
6HR MIN TEMP:  64; 6HR MAX TEMP:  70;

KOKOMO *+      PTSUNNY   66  63  88 S9        30.10S
6HR MIN TEMP:  63; 6HR MAX TEMP:  68;

MARION +       PTSUNNY   66  62  86 SE8       30.13S FOG
MT COMFORT *+  MOSUNNY   68 N/A N/A SE8       30.12S
SHELBYVILLE    MOSUNNY   70  65  84 SE9       30.11S
6HR MIN TEMP:  64; 6HR MAX TEMP:  72;

ZIONSVILLE +   MOSUNNY   67  63  84 SE7       30.12R
6HR MIN TEMP:  64; 6HR MAX TEMP:  69;


$$

INZ033-034-041-042-049-050-058-059-291300-
EAST CENTRAL INDIANA

CITY           SKY/WX    TMP DP  RH WIND       PRES   REMARKS
MUNCIE         PTSUNNY   69  64  84 SE6       30.14R
6HR MIN TEMP:  64; 6HR MAX TEMP:  70;


$$

INZ060-061-067>069-081>083-085>088-291300-
SOUTHWEST INDIANA

CITY           SKY/WX    TMP DP  RH WIND       PRES   REMARKS
EVANSVILLE     SUNNY     70  66  87 S5        30.10R
6HR MIN TEMP:  66; 6HR MAX TEMP:  73;

HUNTINGBURG *+ SUNNY     68  63  83 SE8       30.11R
6HR MIN TEMP:  64; 6HR MAX TEMP:  68;

WASHINGTON +   SUNNY     68  64  87 SE6       30.08S
6HR MIN TEMP:  64; 6HR MAX TEMP:  69;


$$

INZ062-063-066-070>080-084-089>092-291300-
SOUTH CENTRAL AND SOUTHEAST INDIANA

CITY           SKY/WX    TMP DP  RH WIND       PRES   REMARKS
BLOOMINGTON    SUNNY     66  64  93 SE9       30.10S
6HR MIN TEMP:  62; 6HR MAX TEMP:  68;

MADISON *+     MOSUNNY   68  63  83 SE5       30.16S
NORTH VERNON + MOSUNNY   68  68 100 SE5       30.14R
SEYMOUR +      MOSUNNY   68  64  88 SE7       30.12R

$$




USA.gov is the U.S. government's official web portal to all federal, state and local government web resources and services.